TimeADT,TemperatureF,Dew PointF,Humidity,Sea Level PressureIn,VisibilityMPH,Wind Direction,Wind SpeedMPH,Gust SpeedMPH,PrecipitationIn,Events,Conditions,WindDirDegrees,DateUTC
12:00 AM,51.8,48.2,88,30.06,15.0,ESE,3.5,-,N/A,,Overcast,110,2012-10-08 03:00:00
2:00 AM,51.8,50.0,94,30.03,15.0,ESE,4.6,-,N/A,Rain,Light Rain Showers,110,2012-10-08 05:00:00
3:00 AM,52,50,92,30.01,15,South,3.5,,,Rain,Light Rain Showers,170,2012-10-08 06:00:00
3:00 AM,51.8,50.0,94,30.01,15.0,South,3.5,-,N/A,Rain,Light Rain Showers,170,2012-10-08 06:00:00
4:00 AM,51.8,50.0,94,29.99,15.0,South,4.6,-,N/A,Rain,Heavy Rain Showers,170,2012-10-08 07:00:00
5:00 AM,51.8,50.0,94,29.96,15.0,East,3.5,-,N/A,Rain,Light Rain Showers,90,2012-10-08 08:00:00
6:00 AM,50.0,48.2,94,30.03,15.0,West,12.7,18.4,N/A,Rain,Light Rain Showers,270,2012-10-08 09:00:00
7:00 AM,48.2,46.4,93,29.99,10.0,West,4.6,-,N/A,Rain,Light Rain,280,2012-10-08 10:00:00
8:00 AM,48.2,46.4,93,30.00,15.0,West,4.6,-,N/A,Rain,Light Rain Showers,260,2012-10-08 11:00:00
9:00 AM,49,48,94,30.00,15,West,4.6,,,Rain,Light Rain Showers,280,2012-10-08 12:00:00
9:00 AM,50.0,48.2,94,30.00,15.0,WNW,6.9,-,N/A,Rain,Light Rain Showers,290,2012-10-08 12:00:00
10:00 AM,50.0,48.2,94,30.01,15.0,WNW,10.4,-,N/A,Rain,Light Rain Showers,300,2012-10-08 13:00:00
10:14 AM,50.0,48.2,94,30.00,15.0,WNW,8.1,-,N/A,,Mostly Cloudy,300,2012-10-08 13:14:00
11:00 AM,53.6,48.2,82,30.00,15.0,NW,8.1,18.4,N/A,,Mostly Cloudy,310,2012-10-08 14:00:00
12:00 PM,53.6,48.2,82,30.02,15.0,NW,12.7,19.6,N/A,,Mostly Cloudy,310,2012-10-08 15:00:00
1:00 PM,51.8,44.6,76,30.04,15.0,WNW,12.7,-,N/A,,Mostly Cloudy,300,2012-10-08 16:00:00
2:00 PM,51.8,44.6,76,30.06,15.0,West,8.1,20.7,N/A,,Mostly Cloudy,280,2012-10-08 17:00:00
3:00 PM,50,44,73,30.09,15,NW,9.2,,,,Partly Cloudy,310,2012-10-08 18:00:00
3:00 PM,50.0,44.6,82,30.09,15.0,NW,9.2,-,N/A,,Overcast,310,2012-10-08 18:00:00
4:00 PM,50.0,42.8,76,30.12,15.0,West,9.2,-,N/A,,Mostly Cloudy,270,2012-10-08 19:00:00
5:00 PM,50.0,42.8,76,30.14,15.0,West,9.2,-,N/A,,Overcast,280,2012-10-08 20:00:00
6:00 PM,48.2,42.8,82,30.16,15.0,WNW,5.8,-,N/A,,Mostly Cloudy,290,2012-10-08 21:00:00
7:00 PM,48.2,42.8,82,30.20,15.0,West,4.6,-,N/A,,Mostly Cloudy,260,2012-10-08 22:00:00
8:00 PM,48.2,39.2,71,30.24,15.0,West,10.4,-,N/A,,Overcast,280,2012-10-08 23:00:00
9:00 PM,47,39,64,30.27,15,West,9.2,,,,Overcast,270,2012-10-09 00:00:00
9:00 PM,48.2,39.2,71,30.27,15.0,West,9.2,-,N/A,,Overcast,280,2012-10-09 00:00:00
10:00 PM,46.4,35.6,66,30.28,15.0,West,9.2,-,N/A,,Overcast,280,2012-10-09 01:00:00
11:00 PM,44.6,37.4,76,30.31,15.0,West,6.9,-,N/A,,Scattered Clouds,270,2012-10-09 02:00:00